When you browse on this site, cookies collect data to enhance your experience and personalize the content and advertising you see.
Visit our Privacy Policy to learn more. By continuing to use the site, you agree to this use of cookies and data.
  • In Austria
  • List of Countries
  • For 7 days
  • Water Temperature
  • Weather Map
  • News
  • Weather Widgets
  • user-avatar
    Login

    Hourly Weather Mazari Sharif

    Today, 17 February, Monday

    Time Temperature Precipitation Wind Pressure Humidity
    00:00 +2°C° 0 mm 0 mps 659 mmHg 44%
    01:00 +1°C° 0 mm 0 mps 659 mmHg 44%
    02:00 +1°C° 0 mm 0 mps 659 mmHg 42%
    03:00 +3°C° 0 mm 1 mps 660 mmHg 40%
    04:00 +3°C° 0 mm 1 mps 660 mmHg 37%
    05:00 +3°C° 0 mm 1 mps 660 mmHg 37%
    06:00 +3°C° 0 mm 1 mps 661 mmHg 36%
    07:00 +4°C° 0 mm 1 mps 661 mmHg 36%
    08:00 +5°C° 0 mm 1 mps 661 mmHg 35%
    09:00 +7°C° 0 mm 1 mps 662 mmHg 33%
    10:00 +9°C° 0 mm 1 mps 662 mmHg 33%
    11:00 +9°C° 0 mm 1 mps 662 mmHg 33%
    12:00 +9°C° 0 mm 2 mps 662 mmHg 33%
    13:00 +9°C° 0 mm 2 mps 661 mmHg 34%
    14:00 +9°C° 0 mm 2 mps 661 mmHg 36%
    15:00 +8°C° 0 mm 2 mps 660 mmHg 39%
    16:00 +8°C° 0 mm 2 mps 659 mmHg 40%
    17:00 +7°C° 0 mm 2 mps 659 mmHg 42%
    18:00 +7°C° 0 mm 1 mps 659 mmHg 44%
    19:00 +6°C° 0 mm 1 mps 659 mmHg 47%
    20:00 +6°C° 0 mm 1 mps 658 mmHg 48%
    21:00 +5°C° 0 mm 1 mps 658 mmHg 50%
    22:00 +5°C° 0 mm 1 mps 657 mmHg 52%
    23:00 +5°C° 0 mm 1 mps 657 mmHg 52%

    Tomorrow, 18 February, Tuesday

    Time Temperature Precipitation Wind Pressure Humidity
    00:00 +5°C° 0 mm 1 mps 657 mmHg 53%
    01:00 +5°C° 0 mm 1 mps 657 mmHg 53%
    02:00 +4°C° 0 mm 1 mps 657 mmHg 55%
    03:00 +3°C° 0 mm 2 mps 657 mmHg 57%
    04:00 +2°C° 0 mm 3 mps 657 mmHg 58%
    05:00 +2°C° 0 mm 3 mps 658 mmHg 57%
    06:00 +1°C° 0 mm 3 mps 658 mmHg 56%
    07:00 +1°C° 0 mm 3 mps 659 mmHg 55%
    08:00 +2°C° 0 mm 3 mps 659 mmHg 54%
    09:00 +1°C° 0 mm 4 mps 660 mmHg 53%
    10:00 +1°C° 0 mm 4 mps 660 mmHg 51%
    11:00 +1°C° 0.1 mm 4 mps 660 mmHg 60%
    12:00 0°C° 0.1 mm 4 mps 660 mmHg 68%
    13:00 +1°C° 0.1 mm 3 mps 660 mmHg 76%
    14:00 0°C° 0.6 mm 3 mps 660 mmHg 82%
    15:00 0°C° 0.6 mm 3 mps 660 mmHg 89%
    16:00 -1°C° 0.6 mm 3 mps 660 mmHg 95%
    17:00 -1°C° 0.4 mm 3 mps 660 mmHg 95%
    18:00 -1°C° 0.4 mm 2 mps 661 mmHg 95%
    19:00 -1°C° 0.4 mm 2 mps 661 mmHg 95%
    20:00 -2°C° 0.5 mm 2 mps 661 mmHg 95%
    21:00 -2°C° 0.5 mm 2 mps 661 mmHg 95%
    22:00 -2°C° 0.5 mm 2 mps 661 mmHg 95%
    23:00 -2°C° 0.4 mm 2 mps 661 mmHg 95%

    Day after tomorrow, 19 February, Wednesday

    Time Temperature Precipitation Wind Pressure Humidity
    00:00 -2°C° 0.4 mm 2 mps 661 mmHg 96%
    01:00 -3°C° 0.4 mm 2 mps 661 mmHg 96%
    02:00 -3°C° 0.3 mm 2 mps 661 mmHg 95%
    03:00 -3°C° 0.3 mm 2 mps 661 mmHg 95%
    04:00 -3°C° 0.3 mm 2 mps 661 mmHg 94%
    05:00 -1°C° 0.1 mm 1 mps 661 mmHg 94%
    06:00 -1°C° 0.1 mm 1 mps 661 mmHg 94%
    07:00 -2°C° 0.1 mm 0 mps 661 mmHg 93%
    08:00 -1°C° 0 mm 1 mps 661 mmHg 90%
    09:00 0°C° 0 mm 1 mps 661 mmHg 87%
    10:00 0°C° 0 mm 1 mps 661 mmHg 83%
    11:00 +1°C° 0 mm 1 mps 661 mmHg 80%
    12:00 +1°C° 0 mm 2 mps 660 mmHg 77%
    13:00 +1°C° 0 mm 2 mps 660 mmHg 74%
    14:00 +1°C° 0 mm 2 mps 659 mmHg 72%
    15:00 +2°C° 0 mm 2 mps 659 mmHg 71%
    16:00 +2°C° 0 mm 2 mps 659 mmHg 69%
    17:00 +1°C° 0 mm 2 mps 659 mmHg 71%
    18:00 +2°C° 0 mm 1 mps 659 mmHg 72%
    19:00 +1°C° 0 mm 1 mps 659 mmHg 74%
    20:00 +1°C° 0 mm 1 mps 658 mmHg 74%
    21:00 +1°C° 0 mm 1 mps 658 mmHg 74%
    22:00 +1°C° 0 mm 1 mps 658 mmHg 73%
    23:00 +1°C° 0 mm 1 mps 657 mmHg 73%

    20 February, Thursday

    Time Temperature Precipitation Wind Pressure Humidity
    00:00 +1°C° 0 mm 1 mps 657 mmHg 72%
    01:00 +1°C° 0 mm 1 mps 656 mmHg 71%
    02:00 +1°C° 0 mm 1 mps 656 mmHg 70%
    03:00 +1°C° 0 mm 1 mps 655 mmHg 69%
    04:00 +1°C° 0 mm 1 mps 655 mmHg 67%
    05:00 +1°C° 0 mm 1 mps 655 mmHg 65%
    06:00 +2°C° 0 mm 1 mps 655 mmHg 62%
    07:00 +2°C° 0 mm 1 mps 655 mmHg 59%
    08:00 +4°C° 0 mm 1 mps 656 mmHg 54%
    09:00 +6°C° 0 mm 1 mps 656 mmHg 50%
    10:00 +8°C° 0 mm 1 mps 656 mmHg 45%
    11:00 +9°C° 0 mm 1 mps 656 mmHg 44%
    12:00 +9°C° 0 mm 2 mps 655 mmHg 42%
    13:00 +10°C° 0 mm 2 mps 655 mmHg 41%
    14:00 +9°C° 0 mm 2 mps 654 mmHg 43%
    15:00 +9°C° 0 mm 2 mps 654 mmHg 45%
    16:00 +9°C° 0 mm 2 mps 654 mmHg 47%
    17:00 +8°C° 0 mm 2 mps 653 mmHg 47%
    18:00 +7°C° 0 mm 2 mps 653 mmHg 48%
    19:00 +6°C° 0 mm 1 mps 653 mmHg 49%
    20:00 +6°C° 0 mm 1 mps 653 mmHg 47%
    21:00 +6°C° 0 mm 1 mps 653 mmHg 46%
    22:00 +6°C° 0 mm 1 mps 653 mmHg 45%
    23:00 +6°C° 0 mm 1 mps 653 mmHg 42%

    21 February, Friday

    Time Temperature Precipitation Wind Pressure Humidity
    00:00 +6°C° 0 mm 1 mps 653 mmHg 39%
    01:00 +5°C° 0 mm 2 mps 652 mmHg 35%
    02:00 +5°C° 0 mm 2 mps 652 mmHg 34%
    03:00 +5°C° 0 mm 2 mps 652 mmHg 33%
    04:00 +5°C° 0 mm 2 mps 652 mmHg 32%
    05:00 +5°C° 0 mm 2 mps 652 mmHg 32%
    06:00 +6°C° 0 mm 2 mps 652 mmHg 32%
    07:00 +6°C° 0 mm 2 mps 652 mmHg 31%
    08:00 +8°C° 0 mm 2 mps 653 mmHg 29%
    09:00 +10°C° 0 mm 2 mps 653 mmHg 27%
    10:00 +14°C° 0 mm 2 mps 653 mmHg 25%
    17:00 +10°C° 0 mm 3 mps 654 mmHg 39%
    18:00 +9°C° 0 mm 2 mps 654 mmHg 43%
    19:00 +8°C° 0 mm 2 mps 654 mmHg 47%
    20:00 +9°C° 0 mm 2 mps 655 mmHg 44%
    21:00 +9°C° 0 mm 2 mps 655 mmHg 41%
    22:00 +10°C° 0 mm 2 mps 656 mmHg 38%
    23:00 +9°C° 0 mm 2 mps 655 mmHg 40%

    22 February, Saturday

    Time Temperature Precipitation Wind Pressure Humidity
    00:00 +9°C° 0 mm 2 mps 655 mmHg 43%
    01:00 +8°C° 0 mm 2 mps 655 mmHg 45%
    02:00 +8°C° 0 mm 2 mps 655 mmHg 46%
    03:00 +8°C° 0 mm 2 mps 656 mmHg 46%
    04:00 +8°C° 0 mm 1 mps 656 mmHg 47%
    05:00 +8°C° 0 mm 1 mps 656 mmHg 50%
    06:00 +7°C° 0 mm 1 mps 656 mmHg 53%
    07:00 +7°C° 0 mm 1 mps 656 mmHg 56%
    08:00 +8°C° 0 mm 1 mps 657 mmHg 52%
    09:00 +10°C° 0 mm 1 mps 657 mmHg 48%
    10:00 +12°C° 0 mm 1 mps 658 mmHg 43%
    11:00 +12°C° 0 mm 1 mps 658 mmHg 44%
    12:00 +13°C° 0 mm 1 mps 657 mmHg 44%
    13:00 +14°C° 0 mm 2 mps 657 mmHg 44%
    14:00 +13°C° 0 mm 2 mps 657 mmHg 46%
    15:00 +13°C° 0 mm 2 mps 657 mmHg 48%
    16:00 +13°C° 0 mm 2 mps 657 mmHg 50%
    17:00 +12°C° 0 mm 1 mps 657 mmHg 55%
    18:00 +11°C° 0 mm 1 mps 657 mmHg 60%
    19:00 +9°C° 0 mm 0 mps 657 mmHg 66%
    20:00 +8°C° 0 mm 0 mps 657 mmHg 64%
    21:00 +9°C° 0 mm 1 mps 657 mmHg 62%
    22:00 +9°C° 0 mm 1 mps 657 mmHg 60%
    23:00 +9°C° 0 mm 1 mps 656 mmHg 58%
    Show more